FW8733 Weather Reports


Display with metric or nautical units.
time (UTC)temp
F
wind
direction
speed
MPH
gust
MPH
rain 1hr
in
rain 24hr
in
rain mn
in
humidity
%
barometer
mb
20260901134035 83 214 1.0 1.0 0.00 0.00 0.00 82 1020.6
20260901133534 82 236 0.0 0.0 0.00 0.00 0.00 85 1020.5
20260901133033 82 239 1.0 1.0 0.00 0.00 0.00 85 1020.4
20260901132532 81 241 0.0 0.0 0.00 0.00 0.00 87 1020.5
20260901132026 81 216 0.0 0.0 0.00 0.00 0.00 86 1020.3
20260901131521 80 227 0.0 0.0 0.00 0.00 0.00 90 1020.3
20260901131017 79 233 0.0 0.0 0.00 0.00 0.00 92 1020.2
20260901130516 77 224 0.0 0.0 0.00 0.00 0.00 95 1020.3
20260901130015 77 223 0.0 0.0 0.00 0.00 0.00 96 1020.0
20260901125514 76 233 0.0 0.0 0.00 0.00 0.00 97 1020.1
20260901125009 76 233 0.0 0.0 0.00 0.00 0.00 97 1020.0
20260901124505 75 233 0.0 0.0 0.00 0.00 0.00 97 1020.2
20260901123958 75 233 0.0 0.0 0.00 0.00 0.00 97 1019.8
20260901123453 75 233 0.0 0.0 0.00 0.00 0.00 97 1019.9
20260901122951 75 233 0.0 0.0 0.00 0.00 0.00 96 1019.8
20260901122450 75 233 0.0 0.0 0.00 0.00 0.00 96 1019.7
20260901121945 75 234 0.0 0.0 0.00 0.00 0.00 96 1019.9
20260901121440 75 233 0.0 0.0 0.00 0.00 0.00 96 1019.7
20260901120935 75 233 0.0 0.0 0.00 0.00 0.00 96 1019.7
20260901120435 75 233 0.0 0.0 0.00 0.00 0.00 96 1019.7
20260901115931 75 235 0.0 0.0 0.00 0.00 0.00 96 1019.6
20260901115431 75 235 0.0 0.0 0.00 0.00 0.00 96 1019.6
20260901114929 75 228 0.0 0.0 0.00 0.00 0.00 95 1019.6
20260901114424 75 228 0.0 0.0 0.00 0.00 0.00 95 1019.8
20260901113922 75 228 0.0 0.0 0.00 0.00 0.00 95 1019.9
20260901113421 75 233 0.0 0.0 0.00 0.00 0.00 94 1019.6
20260901112916 75 235 0.0 0.0 0.00 0.00 0.00 94 1019.8
20260901112411 75 235 0.0 0.0 0.00 0.00 0.00 94 1019.8
20260901111906 75 235 0.0 0.0 0.00 0.00 0.00 94 1019.6
20260901111404 75 232 0.0 0.0 0.00 0.00 0.00 94 1019.5
20260901110903 75 232 0.0 0.0 0.00 0.00 0.00 93 1019.6
20260901110359 76 232 0.0 0.0 0.00 0.00 0.00 93 1019.5
20260901105855 76 233 0.0 0.0 0.00 0.00 0.00 93 1019.5
20260901105350 76 233 0.0 0.0 0.00 0.00 0.00 93 1019.6
20260901104846 76 236 0.0 0.0 0.00 0.00 0.00 93 1019.6
20260901104341 76 230 0.0 0.0 0.00 0.00 0.00 92 1019.7
20260901103837 76 224 0.0 0.0 0.00 0.00 0.00 91 1019.7
20260901103336 77 232 0.0 0.0 0.00 0.00 0.00 91 1019.7
20260901102831 77 217 0.0 0.0 0.00 0.00 0.00 91 1019.6
20260901102326 77 216 0.0 0.0 0.00 0.00 0.00 91 1019.3
20260901101822 77 216 0.0 0.0 0.00 0.00 0.00 91 1019.4
20260901101321 77 216 0.0 0.0 0.00 0.00 0.00 90 1019.3
20260901100821 77 216 0.0 0.0 0.00 0.00 0.00 90 1019.5
20260901100316 77 216 0.0 0.0 0.00 0.00 0.00 90 1019.4
20260901095814 77 215 0.0 1.0 0.00 0.00 0.00 90 1019.7
20260901095312 77 216 0.0 0.0 0.00 0.00 0.00 89 1019.5
20260901094807 77 216 0.0 0.0 0.00 0.00 0.00 89 1019.6
20260901094301 77 216 0.0 0.0 0.00 0.00 0.00 89 1019.6
20260901093756 77 216 0.0 0.0 0.00 0.00 0.00 89 1019.7
20260901093255 77 216 0.0 0.0 0.00 0.00 0.00 88 1019.7
20260901092751 77 216 0.0 0.0 0.00 0.00 0.00 88 1019.4
20260901092247 78 216 0.0 0.0 0.00 0.00 0.00 88 1019.6
20260901091742 78 216 0.0 0.0 0.00 0.00 0.00 87 1019.8
20260901091238 78 216 0.0 0.0 0.00 0.00 0.00 87 1019.7
20260901090732 78 216 0.0 0.0 0.00 0.00 0.00 87 1019.6
20260901090227 78 216 0.0 0.0 0.00 0.00 0.00 86 1019.8
20260901085723 79 217 0.0 0.0 0.00 0.00 0.00 86 1019.5
20260901085218 79 215 0.0 0.0 0.00 0.00 0.00 85 1019.5
20260901084715 79 166 2.0 2.0 0.00 0.00 0.00 85 1019.4
20260901084211 79 218 0.0 0.0 0.00 0.00 0.00 85 1019.5
20260901083705 79 206 0.0 1.0 0.00 0.00 0.00 85 1019.5
20260901083204 79 215 0.0 1.0 0.00 0.00 0.00 84 1019.5
20260901082658 79 214 1.0 1.0 0.00 0.00 0.00 84 1019.6
20260901082154 79 217 0.0 1.0 0.00 0.00 0.00 83 1019.4
20260901081649 79 218 1.0 1.0 0.00 0.00 0.00 83 1019.6
20260901081148 80 228 1.0 2.0 0.00 0.00 0.00 83 1019.4
20260901080643 80 199 1.0 2.0 0.00 0.00 0.00 83 1019.2
20260901080142 80 218 1.0 1.0 0.00 0.00 0.00 83 1019.2
20260901075638 80 218 0.0 1.0 0.00 0.00 0.00 82 1019.4
20260901075137 80 218 0.0 1.0 0.00 0.00 0.00 82 1019.5
20260901074636 80 218 0.0 1.0 0.00 0.00 0.00 81 1019.4
20260901074132 80 218 0.0 0.0 0.00 0.00 0.00 81 1019.5
20260901073628 80 218 0.0 1.0 0.00 0.00 0.00 81 1019.5
20260901073123 80 219 0.0 0.0 0.00 0.00 0.00 80 1019.6
20260901072619 80 217 1.0 1.0 0.00 0.00 0.00 80 1019.6
20260901072114 80 218 0.0 1.0 0.00 0.00 0.00 79 1019.7
20260901071614 80 217 1.0 1.0 0.00 0.00 0.00 79 1019.8
20260901071113 81 218 0.0 0.0 0.00 0.00 0.00 78 1019.6
20260901070607 81 218 0.0 0.0 0.00 0.00 0.00 78 1019.5
20260901070103 81 218 1.0 1.0 0.00 0.00 0.00 77 1019.5
20260901065556 82 218 0.0 0.0 0.00 0.00 0.00 77 1019.4
20260901065051 82 207 2.0 3.0 0.00 0.00 0.00 76 1019.5
20260901064548 82 180 1.0 2.0 0.00 0.00 0.00 75 1019.3
20260901064044 82 218 3.0 3.0 0.00 0.00 0.00 75 1019.5
20260901063541 82 197 2.0 3.0 0.00 0.00 0.00 75 1019.6
20260901063037 83 212 3.0 3.0 0.00 0.00 0.00 75 1019.2
20260901062532 83 144 3.0 3.0 0.00 0.00 0.00 75 1019.2
20260901062028 83 207 1.0 2.0 0.00 0.00 0.00 74 1019.1
20260901061524 83 228 1.0 1.0 0.00 0.00 0.00 74 1019.3
20260901061019 83 157 3.0 3.0 0.00 0.00 0.00 73 1018.8
20260901060513 83 208 4.0 5.0 0.00 0.00 0.00 73 1018.9
20260901060008 84 228 3.0 3.0 0.00 0.00 0.00 73 1019.0
20260901055504 84 136 5.0 7.0 0.00 0.00 0.00 72 1019.0
20260901055000 84 186 3.0 5.0 0.00 0.00 0.00 72 1018.9
20260901054457 84 175 4.0 5.0 0.00 0.00 0.00 72 1019.0
20260901053953 84 204 3.0 3.0 0.00 0.00 0.00 72 1018.7
20260901053448 84 183 5.0 6.0 0.00 0.00 0.00 72 1019.0
20260901052943 84 201 2.0 2.0 0.00 0.00 0.00 71 1018.9
20260901052439 85 178 3.0 3.0 0.00 0.00 0.00 71 1018.9
20260901051932 85 184 3.0 5.0 0.00 0.00 0.00 71 1018.8
20260901051427 85 210 2.0 2.0 0.00 0.00 0.00 70 1018.8
20260901050922 85 155 4.0 6.0 0.00 0.00 0.00 70 1018.8
20260901050418 85 205 4.0 6.0 0.00 0.00 0.00 70 1018.8
20260901045917 85 225 3.0 5.0 0.00 0.00 0.00 70 1018.5
20260901045412 85 146 4.0 6.0 0.00 0.00 0.00 69 1018.7
20260901044907 85 197 3.0 3.0 0.00 0.00 0.00 69 1018.6
20260901044403 86 179 3.0 3.0 0.00 0.00 0.00 69 1018.5
20260901043859 86 211 2.0 2.0 0.00 0.00 0.00 68 1018.6
20260901043354 86 148 6.0 7.0 0.00 0.00 0.00 67 1018.6
20260901042849 86 166 3.0 3.0 0.00 0.00 0.00 67 1018.6
20260901042343 86 171 5.0 6.0 0.00 0.00 0.00 66 1018.6
20260901041838 86 195 4.0 6.0 0.00 0.00 0.00 66 1018.7
20260901041333 86 229 2.0 2.0 0.00 0.00 0.00 66 1018.7
20260901040828 86 224 5.0 7.0 0.00 0.00 0.00 65 1018.5
20260901040327 86 191 4.0 5.0 0.00 0.00 0.00 65 1018.6
20260901035826 87 197 3.0 3.0 0.00 0.00 0.00 64 1018.8
20260901035326 87 205 3.0 3.0 0.00 0.00 0.00 64 1018.6
20260901034824 87 168 5.0 6.0 0.00 0.00 0.00 63 1018.7
20260901034320 87 120 4.0 5.0 0.00 0.00 0.00 62 1018.7
20260901033820 87 131 5.0 6.0 0.00 0.00 0.00 61 1018.5
20260901033319 87 151 2.0 5.0 0.00 0.00 0.00 59 1018.6
20260901032818 87 201 2.0 3.0 0.00 0.00 0.00 57 1018.5
20260901032317 87 218 2.0 2.0 0.00 0.00 0.00 55 1018.5
20260901031812 87 187 3.0 3.0 0.00 0.00 0.00 54 1018.2
20260901031308 87 205 3.0 3.0 0.00 0.00 0.00 54 1018.3
20260901030808 87 221 3.0 3.0 0.00 0.00 0.00 54 1018.3
20260901030303 86 183 3.0 3.0 0.00 0.00 0.00 56 1018.1
20260901025802 85 197 1.0 2.0 0.00 0.00 0.00 57 1018.0
20260901025257 85 217 0.0 0.0 0.00 0.00 0.00 56 1018.0
20260901024752 86 217 0.0 0.0 0.00 0.00 0.00 55 1017.9
20260901024251 86 217 0.0 0.0 0.00 0.00 0.00 55 1017.5
20260901023749 86 217 0.0 0.0 0.00 0.00 0.00 54 1017.6
20260901023244 86 207 0.0 0.0 0.00 0.00 0.00 54 1017.6
20260901022740 85 201 0.0 0.0 0.00 0.00 0.00 55 1017.4
20260901022235 85 221 0.0 0.0 0.00 0.00 0.00 56 1017.3
20260901021730 86 222 0.0 0.0 0.00 0.00 0.00 57 1017.4
20260901021226 86 224 0.0 0.0 0.00 0.00 0.00 56 1017.4
20260901020721 86 224 0.0 0.0 0.00 0.00 0.00 56 1017.1
20260901020216 87 222 0.0 0.0 0.00 0.00 0.00 55 1017.1
20260901015711 87 221 0.0 0.0 0.00 0.00 0.00 54 1017.1
20260901015207 88 224 0.0 0.0 0.00 0.00 0.00 52 1016.8
20260901014707 89 222 0.0 0.0 0.00 0.00 0.00 51 1016.8
20260901014203 89 215 0.0 0.0 0.00 0.00 0.00 51 1016.7
20260901013658 89 210 0.0 0.0 0.00 0.00 0.00 52 1016.6
20260901013154 89 209 0.0 0.0 0.00 0.00 0.00 53 1016.5
20260901012649 89 219 0.0 0.0 0.00 0.00 0.00 52 1016.7
20260901012144 90 219 0.0 0.0 0.00 0.00 0.00 51 1016.7
20260901011640 90 219 0.0 0.0 0.00 0.00 0.00 51 1016.5
20260901011138 91 218 0.0 0.0 0.00 0.00 0.00 50 1016.6
20260901010633 91 217 1.0 2.0 0.00 0.00 0.00 49 1016.4
20260901010133 91 219 0.0 0.0 0.00 0.00 0.00 49 1016.5
20260901005632 92 211 0.0 0.0 0.00 0.00 0.00 49 1016.5
20260901005128 92 217 0.0 0.0 0.00 0.00 0.00 49 1016.6
20260901004627 93 216 1.0 1.0 0.00 0.00 0.00 48 1016.5
20260901004122 92 194 1.0 1.0 0.00 0.00 0.00 47 1016.7
20260901003617 92 199 1.0 2.0 0.00 0.00 0.00 48 1016.6
20260901003115 93 216 1.0 1.0 0.00 0.00 0.00 47 1016.4
20260901002610 94 211 0.0 0.0 0.00 0.00 0.00 46 1016.4
20260901002105 94 164 2.0 2.0 0.00 0.00 0.00 46 1016.3
20260901001600 94 168 1.0 2.0 0.00 0.00 0.00 46 1016.3
20260901001055 94 215 0.0 1.0 0.00 0.00 0.00 46 1016.1
20260901000550 94 189 2.0 2.0 0.00 0.00 0.00 46 1016.1
20260901000046 94 212 1.0 2.0 0.00 0.00 0.00 47 1016.4
20260831235545 94 181 2.0 2.0 0.00 0.00 0.00 46 1016.3
20260831235040 94 171 4.0 6.0 0.00 0.00 0.00 45 1016.2
20260831234534 94 207 1.0 1.0 0.00 0.00 0.00 46 1016.5
20260831234030 95 142 3.0 3.0 0.00 0.00 0.00 45 1016.3
20260831233525 95 157 4.0 5.0 0.00 0.00 0.00 45 1016.3
20260831233021 96 193 1.0 2.0 0.00 0.00 0.00 45 1016.4
20260831232516 95 213 5.0 7.0 0.00 0.00 0.00 45 1016.4
20260831232012 96 162 3.0 5.0 0.00 0.00 0.00 44 1016.3
20260831231509 97 209 5.0 7.0 0.00 0.00 0.00 43 1016.3
20260831231004 97 177 5.0 7.0 0.00 0.00 0.00 43 1016.3
20260831230500 97 196 3.0 3.0 0.00 0.00 0.00 43 1016.5
20260831225959 98 198 2.0 3.0 0.00 0.00 0.00 42 1016.1
20260831225455 98 191 2.0 2.0 0.00 0.00 0.00 41 1016.3
20260831224954 98 199 0.0 1.0 0.00 0.00 0.00 40 1016.5
20260831224449 98 195 3.0 3.0 0.00 0.00 0.00 40 1016.3
20260831223944 98 155 3.0 5.0 0.00 0.00 0.00 41 1016.5
20260831223439 98 208 5.0 8.0 0.00 0.00 0.00 41 1016.3
20260831222936 98 160 2.0 3.0 0.00 0.00 0.00 41 1016.5
20260831222431 98 114 5.0 7.0 0.00 0.00 0.00 41 1016.5
20260831221926 98 216 1.0 2.0 0.00 0.00 0.00 41 1016.5
20260831221422 98 235 1.0 2.0 0.00 0.00 0.00 43 1016.5
20260831220917 98 194 3.0 3.0 0.00 0.00 0.00 40 1016.5
20260831220412 98 183 0.0 1.0 0.00 0.00 0.00 40 1016.6
20260831215907 97 171 4.0 6.0 0.00 0.00 0.00 40 1016.8
20260831215403 96 223 2.0 3.0 0.00 0.00 0.00 42 1017.0
20260831214859 98 153 1.0 2.0 0.00 0.00 0.00 41 1016.6
20260831214356 97 197 5.0 7.0 0.00 0.00 0.00 41 1016.8
20260831213852 97 205 3.0 3.0 0.00 0.00 0.00 41 1017.0
20260831213348 97 266 1.0 2.0 0.00 0.00 0.00 43 1017.1
20260831212843 97 221 2.0 3.0 0.00 0.00 0.00 43 1017.0
20260831212340 96 205 1.0 1.0 0.00 0.00 0.00 46 1017.2
20260831211838 95 182 3.0 3.0 0.00 0.00 0.00 45 1017.2
20260831211333 96 198 2.0 2.0 0.00 0.00 0.00 45 1017.4
20260831210833 98 211 5.0 7.0 0.00 0.00 0.00 44 1017.5
20260831210329 97 155 4.0 7.0 0.00 0.00 0.00 44 1017.4
20260831205829 98 187 4.0 5.0 0.00 0.00 0.00 43 1017.7
20260831205326 96 220 4.0 6.0 0.00 0.00 0.00 45 1017.7
20260831204825 97 226 0.0 0.0 0.00 0.00 0.00 47 1017.8
20260831204324 97 176 5.0 7.0 0.00 0.00 0.00 43 1018.0
20260831203824 97 220 2.0 3.0 0.00 0.00 0.00 44 1017.9
20260831203319 97 129 5.0 7.0 0.00 0.00 0.00 43 1018.3
20260831202817 97 216 4.0 6.0 0.00 0.00 0.00 44 1018.2
20260831202313 97 194 6.0 8.0 0.00 0.00 0.00 44 1018.3
20260831201812 97 224 3.0 3.0 0.00 0.00 0.00 44 1018.4
20260831201311 96 167 4.0 6.0 0.00 0.00 0.00 45 1018.4
20260831200807 95 116 7.0 8.0 0.00 0.00 0.00 46 1018.6
20260831200302 98 168 5.0 6.0 0.00 0.00 0.00 45 1018.7
20260831195757 98 154 6.0 7.0 0.00 0.00 0.00 46 1018.7
20260831195253 97 188 5.0 7.0 0.00 0.00 0.00 47 1018.7
20260831194748 97 232 3.0 3.0 0.00 0.00 0.00 47 1019.0
20260831194244 97 249 2.0 3.0 0.00 0.00 0.00 47 1018.9
20260831193737 96 155 2.0 2.0 0.00 0.00 0.00 47 1018.9
20260831193233 96 194 3.0 5.0 0.00 0.00 0.00 47 1019.1
20260831192727 97 120 6.0 8.0 0.00 0.00 0.00 47 1019.0
20260831192222 96 212 1.0 2.0 0.00 0.00 0.00 48 1019.1
20260831191719 96 280 2.0 3.0 0.00 0.00 0.00 49 1019.3
20260831191215 96 222 3.0 7.0 0.00 0.00 0.00 49 1019.3
20260831190710 96 276 3.0 5.0 0.00 0.00 0.00 48 1019.3
20260831190209 96 151 6.0 8.0 0.00 0.00 0.00 47 1019.4
20260831185704 96 181 5.0 7.0 0.00 0.00 0.00 48 1019.4
20260831185159 95 162 5.0 6.0 0.00 0.00 0.00 51 1019.6
20260831184658 96 184 6.0 8.0 0.00 0.00 0.00 50 1019.5
20260831184155 95 189 3.0 5.0 0.00 0.00 0.00 48 1019.8
20260831183654 95 170 5.0 6.0 0.00 0.00 0.00 49 1019.7
20260831183153 95 191 5.0 7.0 0.00 0.00 0.00 50 1019.6
20260831182652 95 200 4.0 5.0 0.00 0.00 0.00 50 1019.8
20260831182148 95 156 9.0 10.0 0.00 0.00 0.00 48 1019.8
20260831181644 95 176 6.0 8.0 0.00 0.00 0.00 50 1019.7
20260831181143 95 192 3.0 3.0 0.00 0.00 0.00 52 1019.9
20260831180639 95 191 1.0 2.0 0.00 0.00 0.00 53 1019.9
20260831180134 95 182 3.0 5.0 0.00 0.00 0.00 53 1020.0
20260831175628 95 163 4.0 6.0 0.00 0.00 0.00 54 1020.2
20260831175125 94 237 1.0 1.0 0.00 0.00 0.00 59 1020.1
20260831174625 95 168 4.0 5.0 0.00 0.00 0.00 53 1020.2
20260831174120 95 199 3.0 3.0 0.00 0.00 0.00 53 1020.3
20260831173618 94 200 2.0 2.0 0.00 0.00 0.00 55 1020.3
20260831173115 93 181 4.0 5.0 0.00 0.00 0.00 56 1020.3
20260831172614 93 151 5.0 7.0 0.00 0.00 0.00 56 1020.5
20260831172114 93 104 6.0 7.0 0.00 0.00 0.00 56 1020.4
20260831171610 93 220 1.0 1.0 0.00 0.00 0.00 57 1020.3
20260831171107 93 214 3.0 5.0 0.00 0.00 0.00 56 1020.7
20260831170603 92 133 3.0 5.0 0.00 0.00 0.00 59 1020.7
20260831170100 92 196 2.0 2.0 0.00 0.00 0.00 58 1020.8
20260831165555 92 178 1.0 1.0 0.00 0.00 0.00 58 1020.7
20260831165052 92 211 6.0 9.0 0.00 0.00 0.00 57 1020.6
20260831164547 92 201 5.0 6.0 0.00 0.00 0.00 58 1020.8
20260831164043 92 193 2.0 3.0 0.00 0.00 0.00 60 1020.6
20260831163537 91 120 5.0 7.0 0.00 0.00 0.00 62 1020.7
20260831163033 91 184 2.0 2.0 0.00 0.00 0.00 61 1020.8
20260831162532 92 131 5.0 10.0 0.00 0.00 0.00 60 1020.6
20260831162030 92 213 3.0 5.0 0.00 0.00 0.00 59 1020.8
20260831161527 92 198 3.0 3.0 0.00 0.00 0.00 63 1020.6
20260831161023 91 193 0.0 0.0 0.00 0.00 0.00 66 1020.6
20260831160522 89 173 2.0 2.0 0.00 0.00 0.00 65 1020.7
20260831160017 89 196 5.0 8.0 0.00 0.00 0.00 66 1020.5
20260831155512 89 201 2.0 2.0 0.00 0.00 0.00 69 1020.7
20260831155007 90 222 0.0 0.0 0.00 0.00 0.00 68 1021.0
20260831154503 90 199 3.0 5.0 0.00 0.00 0.00 66 1020.7
20260831154002 89 201 2.0 2.0 0.00 0.00 0.00 68 1020.4
20260831153457 87 189 3.0 3.0 0.00 0.00 0.00 72 1020.6
20260831152954 86 177 3.0 3.0 0.00 0.00 0.00 74 1020.8
20260831152449 87 198 1.0 1.0 0.00 0.00 0.00 73 1020.5
20260831151944 87 160 1.0 2.0 0.00 0.00 0.00 71 1020.5
20260831151443 88 199 2.0 2.0 0.00 0.00 0.00 73 1020.6
20260831150938 87 226 1.0 1.0 0.00 0.00 0.00 73 1020.5
20260831150434 87 168 4.0 5.0 0.00 0.00 0.00 74 1020.4
20260831145933 87 209 1.0 1.0 0.00 0.00 0.00 73 1020.4
20260831145430 87 184 3.0 5.0 0.00 0.00 0.00 75 1020.3
20260831144925 87 160 2.0 3.0 0.00 0.00 0.00 76 1020.5
20260831144421 87 179 3.0 6.0 0.00 0.00 0.00 75 1020.3
20260831143916 87 207 3.0 3.0 0.00 0.00 0.00 75 1020.1
20260831143411 87 156 3.0 3.0 0.00 0.00 0.00 75 1020.1
20260831142907 86 205 2.0 3.0 0.00 0.00 0.00 77 1020.1
20260831142402 86 170 2.0 3.0 0.00 0.00 0.00 77 1019.9
20260831141856 87 223 4.0 6.0 0.00 0.00 0.00 77 1020.3
20260831141350 86 203 2.0 3.0 0.00 0.00 0.00 79 1019.9
20260831140846 85 178 2.0 3.0 0.00 0.00 0.00 79 1020.0
20260831140345 85 193 1.0 2.0 0.00 0.00 0.00 81 1020.0
20260831135844 84 223 0.0 1.0 0.00 0.00 0.00 83 1019.9
20260831135334 84 165 2.0 3.0 0.00 0.00 0.00 83 1019.9
20260831134829 83 193 3.0 3.0 0.00 0.00 0.00 84 1020.0